Location: Bartlow
(52.0833°N, 0.3167°E)
Time: 03:36:41
(UTC+00:00)

Lacrosse 4 Rocket - Pass Details

Date: 26 September 2023
Orbit: 528 x 605 km, 68.0° (Epoch: 29 November)

Event Time Altitude Azimuth Distance (km) Brightness Sun altitude
Exits shadow 02:24:31 31° 72° (ENE) 1,020 3.1 -29.7°
Drops below altitude 10° 02:27:09 10° 47° (NE) 1,905 5.0 -29.4°
Sets 02:29:30 0° 41° (NE) 2,823 6.2 -29.2°
